Location: Croisilles
(50.1998°N, 2.8793°E)
Time: 02:28:50
(UTC+00:00)

Cosmos 1833 Rocket - Pass Details

Date: 21 January 2021
Orbit: 833 x 839 km, 71.0° (Epoch: 24 February)

Event Time Altitude Azimuth Distance (km) Brightness Sun altitude
Rises 17:29:17 0° 333° (NNW) 3,393 6.0 -10.3°
Reaches altitude 10° 17:32:24 10° 350° (N) 2,456 5.0 -10.8°
Maximum altitude 17:36:32 20° 37° (NE) 1,829 4.0 -11.4°
Enters shadow 17:38:59 16° 69° (ENE) 2,070 4.1 -11.8°
